Terminal Aerodrome Forecast
Issued by NWS

Home | Current Version | Previous Version | Text Only | Print | Product List | Glossary Off
Versions: 1 2 3 4 5 6 7 8 9 10 11 12 13

000
FTUS43 KICT 180715 AAB
TAFRSL
TAF AMD
KRSL 180715Z 1807/1906 15009KT P6SM VCTS SCT080CB BKN300
      TEMPO 1807/1810 VRB25G35KT 3SM TSRA BKN080CB
     FM181000 17013KT P6SM SCT100
     FM181600 17017G22KT P6SM SCT050
     FM190100 17013KT P6SM SKC=

USA.gov is the U.S. government's official web portal to all federal, state and local government web resources and services.